Location: ????????
(55.5667°N, 37.5833°E)
Time: 07:16:53
(UTC+00:00)

Cosmos 1697 Rocket - Pass Details

Date: 14 April 2026
Orbit: 832 x 842 km, 71.0° (Epoch: 13 May)

Event Time Altitude Azimuth Distance (km) Brightness Sun altitude
Rises 22:25:45 0° 325° (NW) 3,407 6.4 -23.7°
Reaches altitude 10° 22:28:13 10° 323° (NW) 2,467 5.6 -23.6°
Maximum altitude 22:33:51 71° 241° (WSW) 890 2.6 -23.4°
Enters shadow 22:34:56 56° 183° (S) 994 2.7 -23.4°
